Home > Weather > Seevetal > Past weeks

Flag for Germany Past Weather in Seevetal, Lower Saxony, Germany — Yesterday and Last 2 Weeks

Now
54 °F

Partly sunny.


Feels Like: 50 °F
Forecast: 51 / 65 °F
Wind: 13 mph from Northwest

Location: Hamburg-Finkenwerder

Current Time: May 24, 2016 at 2:00:08 PM

Latest Report: May 24, 2016 at 12:50 PM


Visibility: N/A

Pressure: 29.89 "Hg

Humidity: 100%

Dew Point: 54 °F

Location of SeevetalLocation

Past Weather in Seevetal — Graph

°F

Seevetal Temperature Yesterday

Maximum temperature yesterday: 72 °F (at 2:50 PM)
Minimum temperature yesterday: 59 °F (at 5:50 AM)
Average temperature yesterday: 66 °F

High & Low Weather Summary for the Past Weeks

 TemperatureHumidityPressure
High79 °F (May 11, 3:20 PM)100% (May 12, 5:50 AM)30.09 "Hg (May 12, 5:50 AM)
Low45 °F (May 17, 5:50 AM)29% (May 10, 5:50 PM)29.59 "Hg (May 13, 5:20 PM)
Average64 °F63%29.84 "Hg
* Reported May 9 12:20 PM — May 24 12:20 PM, Seevetal, Weather by CustomWeather, © 2016

Note: Actual official high and low records may vary slightly from our data, if they occured in-between our weather recording intervals... More about our weather records

Advertising

Seevetal Weather History for the Previous 24 Hours

Scroll right to see more
 ConditionsComfort  
Time TempWeatherWind HumidityBarometerVisibility
12:20 PM
Tue, May 24
54 °FPartly sunny.14 mph100%29.89 "HgN/A
11:50 AM54 °FPartly sunny.16 mph100%29.89 "HgN/A
11:20 AM54 °FPartly sunny.17 mph100%29.89 "HgN/A
10:50 AM54 °FBroken clouds.14 mph100%29.89 "HgN/A
10:20 AM52 °FBroken clouds.14 mph100%29.89 "HgN/A
9:50 AM52 °FBroken clouds.13 mph100%29.89 "HgN/A
9:20 AM52 °FLight rain. Partly sunny.12 mph100%29.89 "HgN/A
8:50 AM52 °FLight rain. Partly sunny.12 mph100%29.89 "Hg6 mi
8:20 AM52 °FLight rain. Partly sunny.13 mph100%29.89 "Hg5 mi
7:50 AM54 °FLight rain. Partly sunny.13 mph100%29.86 "Hg5 mi
7:20 AM54 °FLight rain. Partly sunny.9 mph100%29.86 "Hg4 mi
6:50 AM54 °FSprinkles. Partly sunny.10 mph100%29.86 "Hg5 mi
6:20 AM54 °FSprinkles. Partly sunny.9 mph100%29.86 "Hg6 mi
5:50 AM54 °FSprinkles. Passing clouds.12 mph100%29.86 "Hg6 mi
6:50 PM
Mon, May 23
70 °FPartly sunny.7 mph78%29.80 "HgN/A
6:20 PM70 °FBroken clouds.5 mph78%29.80 "HgN/A
5:50 PM70 °FBroken clouds.3 mph78%29.77 "HgN/A
5:20 PM72 °FThundershowers. Partly sunny.6 mph65%29.77 "HgN/A
4:50 PM72 °FThundershowers. Scattered clouds.5 mph69%29.80 "HgN/A
4:20 PM72 °FBroken clouds.3 mph69%29.80 "HgN/A
3:50 PM70 °FBroken clouds.No wind78%29.80 "HgN/A
3:20 PM70 °FBroken clouds.5 mph78%29.80 "HgN/A
2:50 PM72 °FBroken clouds.5 mph69%29.77 "HgN/A
2:20 PM70 °FBroken clouds.2 mph73%29.77 "HgN/A
Weather by CustomWeather, © 2016

See weather overviewHow to use our weather pages